Location: Artiguedieu
(43.5000°N, 0.5454°E)
Time: 22:41:26
(UTC+00:00)

Transit 2A Rocket - Pass Details

Date: 01 August 2021
Orbit: 586 x 916 km, 66.7° (Epoch: 19 September)

Event Time Altitude Azimuth Distance (km) Brightness Sun altitude
Rises 13:47:57 0° 204° (SSW) 2,825 8.4 56.3°
Reaches altitude 10° 13:50:07 10° 202° (SSW) 1,949 7.8 56.0°
Maximum altitude 13:54:28 72° 118° (ESE) 669 5.6 55.4°
Drops below altitude 10° 13:59:11 10° 35° (NE) 2,114 7.1 54.7°
Sets 14:01:37 0° 34° (NNE) 3,086 7.8 54.4°
